[[{"header":{"parameterUnit":"m.s-1","parameterCategory":1,"la1":30.2991,"la2":30.254,"lo1":-89.0895,"lo2":-89.0444,"dy":0.0017,"dx":0.0017,"nx":28,"ny":28,"refTime":"2023-11-21T03:00:00:Z","depth":0,"parameterNumber":2,"parameterNumberName":"U-component_of_WINDS"},"data":[0,0,0,0,0,0,0,0,0,0,0,0,0,0,0,0,0,0,0,0,0,0,0,0,0,0,0,0,0,0,0,0,0,0,0,0,0,0,0,0,0,0,0,0,0,0,0,0,0,0,0,0,0,0,0,0,0,0,2.976,2.976,0,2.9774,2.9774,2.9774,2.974,2.9739,2.9738,2.9737,2.9753,2.9754,2.9756,0,0,0,0,0,0,0,0,0,0,0,0,0,2.9706,2.9707,2.976,2.976,2.976,2.9774,2.9774,2.9774,2.9741,2.9739,2.9738,2.9737,2.9752,2.9754,2.9756,0,0,0,0,0,0,0,0,0,0,0,0,0,2.9725,2.9707,2.976,2.9745,2.9744,2.9774,2.9774,2.9774,2.9741,2.9739,2.9738,2.9736,2.9752,2.9754,2.9756,2.9802,0,0,2.9763,2.9764,0,0,0,0,0,0,0,0,2.9724,2.9727,2.9747,2.9746,2.9745,2.9754,2.9761,2.9784,2.9741,2.9742,2.9737,2.9735,2.9755,2.9756,2.9763,2.9803,2.9803,2.9763,2.9764,2.9765,2.9766,0,0,0,0,0,0,0,2.9723,2.9727,2.9765,2.9747,2.9746,2.9738,2.9739,2.9765,2.9757,2.9742,2.9739,2.9741,2.9754,2.9761,2.9763,2.9803,2.9763,2.9765,2.9766,2.9767,2.9884,2.9886,0,0,0,0,0,0,2.9723,2.9726,2.9765,2.9766,2.973,2.9741,2.9742,2.9752,2.9757,2.9756,2.9743,2.974,2.9758,2.976,2.9763,2.9818,2.9765,2.9767,2.9768,2.9882,2.9885,2.9887,0,0,0,0,0,0,2.9722,2.9727,2.9764,2.9745,2.9749,2.9743,2.9756,2.9754,2.976,2.9758,2.9756,2.9751,2.9757,2.976,2.9793,2.9818,2.9768,2.977,2.988,2.9883,2.9886,2.9928,0,0,0,0,0,0,2.9721,2.9727,2.9743,2.9746,2.975,2.9793,2.9757,2.9755,2.9764,2.976,2.9765,2.9764,2.9756,2.979,2.9795,2.982,2.9772,2.9878,2.9882,2.9885,2.9924,2.9932,2.9938,0,0,0,0,0,2.9719,2.9754,2.9744,2.9749,2.9771,2.9794,2.9797,2.9786,2.9766,2.9783,2.9782,2.9764,2.9815,2.9794,2.9799,2.9825,2.9876,2.9881,2.9885,2.9921,2.993,2.9938,0,0,0,0,0,0,2.9755,2.9754,2.9743,2.978,2.9788,2.9789,2.9809,2.9796,2.9809,2.9805,2.9791,2.9793,2.9829,2.983,2.9806,2.9871,2.9842,2.9848,2.9868,2.9877,2.9884,2.9882,2.9773,0,0,0,0,0,2.9767,2.9785,2.9784,2.9817,2.9822,2.9815,2.9825,2.9816,2.9824,2.9826,2.9827,2.9836,2.9854,2.9866,2.9882,2.9925,2.9926,2.9946,2.9953,2.9959,2.9963,2.9988,2.9997,2.99,2.99,2.99,0,0,2.9792,2.9794,2.9807,2.9825,2.9829,2.985,2.9818,2.984,2.9856,2.983,2.9861,2.9862,2.9871,2.991,2.9927,2.9912,2.9991,2.9964,2.9969,2.997,2.9993,3.0003,3.0011,2.9903,2.9902,2.9902,0,0,2.9848,2.9852,2.988,2.9886,2.9894,2.989,2.9897,2.9901,2.9901,2.9932,2.9913,2.9932,2.9963,2.997,2.9978,3.0041,3.0026,3.0047,3.0083,3.0107,3.0115,3.0122,3.0145,3.0153,3.0052,3.0052,3.0052,0,2.9878,2.9908,2.9896,2.9921,2.993,2.9908,2.9938,2.9944,2.9957,2.9965,2.9949,2.9988,2.9992,3.0033,3.0049,3.0056,3.0064,3.0045,3.0115,3.0121,3.0128,3.015,3.0158,3.0054,3.0054,3.0054,3.0054,0,2.9945,2.9967,2.9989,3.0002,3.0014,3.0041,3.0035,3.0048,3.004,3.0038,3.0071,3.0076,3.0094,3.0103,3.0094,3.0143,3.0134,3.0117,3.0088,3.014,3.016,3.0168,3.0058,3.0057,3.0056,3.0056,0,0,3.0022,3.0031,3.0039,3.0046,3.0055,3.0071,3.0098,3.0116,3.0128,3.0139,3.0162,3.019,3.0175,3.0184,3.0176,3.0198,3.0249,3.0178,3.0178,3.0191,3.0305,3.0318,3.0328,3.0239,3.0241,3.0242,3.0304,0,3.0078,3.0124,3.0116,3.016,3.0181,3.0162,3.0186,3.0195,3.0195,3.0213,3.0213,3.0233,3.0211,3.0217,3.0237,3.0238,3.0271,3.0234,3.0261,3.0262,3.0259,3.0338,3.0351,3.041,3.0312,3.0314,3.0315,0,3.0149,3.0163,3.021,3.0217,3.0226,3.0247,3.0264,3.0281,3.0291,3.029,3.0302,3.0291,3.032,3.0291,3.0331,3.0306,3.0317,3.032,3.0322,3.0323,3.0291,3.0342,3.0428,3.0437,3.0327,3.0326,3.0325,0,3.0201,3.0231,3.0264,3.027,3.028,3.0296,3.03,3.0309,3.0321,3.0336,3.0344,3.0363,3.0373,3.0388,3.0383,3.0362,3.0425,3.0395,3.0425,3.0425,3.0438,3.0437,3.0527,3.0446,3.0446,3.0446,3.0446,0,3.0264,3.0293,3.0287,3.0307,3.0341,3.0332,3.0366,3.0369,3.0378,3.0399,3.0384,3.0405,3.0397,3.0418,3.0415,3.0449,3.0454,3.0454,3.0453,3.0455,3.0455,3.0462,3.0457,3.0448,3.0448,3.0447,3.0447,0,3.0326,3.0323,3.0358,3.0365,3.0368,3.0392,3.0398,3.0418,3.0418,3.0445,3.0451,3.0451,3.0475,3.0472,3.0498,3.0496,3.0539,3.0533,3.0536,3.0534,3.0564,3.0562,3.0661,3.0674,3.0585,3.0586,3.0587,0,3.0366,3.0389,3.0399,3.0412,3.0418,3.0439,3.0452,3.0445,3.0459,3.0475,3.0493,3.0515,3.0533,3.0572,3.0575,3.0596,3.059,3.0624,3.0593,3.0595,3.0591,3.0589,3.0592,3.0629,3.063,3.0631,3.0632,0,3.0438,3.0436,3.0454,3.0473,3.0489,3.0503,3.0516,3.0528,3.0523,3.0539,3.0564,3.0577,3.0605,3.0628,3.0649,3.0655,3.0643,3.0642,3.065,3.0652,3.0653,3.0653,3.0552,3.0639,3.0638,3.0638,3.0637,3.0637,3.0491,3.0511,3.0521,3.0543,3.0552,3.0565,3.0584,3.0588,3.0607,3.0629,3.0625,3.0653,3.0665,3.0691,3.07,3.0722,3.071,3.0722,3.0724,3.0727,3.0731,3.065,3.0726,3.0726,3.0726,3.0725,3.0725,0,3.0562,3.0568,3.0588,3.0607,3.0625,3.0613,3.0628,3.0643,3.0668,3.068,3.0698,3.0728,3.0751,3.0757,3.0779,3.0796,3.0791,3.0802,3.0801,3.0803,3.074,3.0731,3.0806,3.0806,3.0806,3.0806,3.0806,3.0806,3.0601,3.0634,3.0634,3.0673,3.068,3.0706,3.0716,3.0729,3.0739,3.0772,3.0791,3.0795,3.0806,3.0829,3.0851,3.0852,3.0861,3.0874,3.0873,3.0815,3.0807,3.0799,3.079,3.0876,3.0876,3.0934,3.0934,3.0934]},{"header":{"parameterUnit":"m.s-1","parameterCategory":1,"la1":30.2991,"la2":30.254,"lo1":-89.0895,"lo2":-89.0444,"dy":0.0017,"dx":0.0017,"nx":28,"ny":28,"refTime":"2023-11-21T03:00:00:Z","depth":0,"parameterNumber":3,"parameterNumberName":"V-component_of_WINDS"},"data":[0,0,0,0,0,0,0,0,0,0,0,0,0,0,0,0,0,0,0,0,0,0,0,0,0,0,0,0,0,0,0,0,0,0,0,0,0,0,0,0,0,0,0,0,0,0,0,0,0,0,0,0,0,0,0,0,0,0,-5.899,-5.8992,0,-5.9154,-5.9155,-5.9157,-5.9134,-5.9131,-5.9129,-5.9126,-5.929,-5.9297,-5.9304,0,0,0,0,0,0,0,0,0,0,0,0,0,-5.8657,-5.8663,-5.899,-5.8992,-5.8994,-5.9153,-5.9155,-5.9158,-5.9135,-5.9131,-5.9128,-5.9125,-5.9288,-5.9296,-5.9304,0,0,0,0,0,0,0,0,0,0,0,0,0,-5.8809,-5.8665,-5.899,-5.9002,-5.9005,-5.9153,-5.9156,-5.9158,-5.9135,-5.9131,-5.9127,-5.9123,-5.9285,-5.9295,-5.9305,-5.9451,0,0,-5.9337,-5.9342,0,0,0,0,0,0,0,0,-5.88,-5.8821,-5.8998,-5.9001,-5.9005,-5.9119,-5.9098,-5.9256,-5.9136,-5.9086,-5.9126,-5.9121,-5.9236,-5.9251,-5.929,-5.9459,-5.9466,-5.9338,-5.9344,-5.9349,-5.9352,0,0,0,0,0,0,0,-5.879,-5.8814,-5.9055,-5.9001,-5.9005,-5.8999,-5.9016,-5.9128,-5.9182,-5.909,-5.9088,-5.9108,-5.9237,-5.928,-5.9294,-5.9468,-5.9338,-5.9347,-5.9353,-5.9357,-5.9766,-5.977,0,0,0,0,0,0,-5.8776,-5.8805,-5.9049,-5.906,-5.889,-5.9008,-5.9027,-5.9087,-5.9181,-5.9191,-5.9112,-5.9107,-5.9264,-5.9282,-5.9299,-5.9477,-5.9349,-5.9358,-5.9364,-5.9761,-5.9767,-5.9772,0,0,0,0,0,0,-5.8769,-5.8798,-5.9043,-5.8932,-5.8963,-5.9018,-5.9085,-5.9092,-5.9135,-5.9197,-5.9206,-5.9146,-5.9262,-5.9285,-5.9414,-5.9483,-5.9363,-5.9372,-5.9756,-5.9763,-5.9769,-5.9833,0,0,0,0,0,0,-5.876,-5.8796,-5.8852,-5.8934,-5.8969,-5.9156,-5.9089,-5.9098,-5.9153,-5.9148,-5.9231,-5.9241,-5.926,-5.9399,-5.9424,-5.9495,-5.9381,-5.975,-5.9759,-5.9767,-5.9825,-5.9842,-5.9855,0,0,0,0,0,-5.8748,-5.8862,-5.8855,-5.8884,-5.904,-5.916,-5.918,-5.92,-5.9159,-5.9215,-5.9256,-5.9238,-5.9471,-5.9412,-5.9441,-5.9515,-5.9746,-5.9756,-5.9767,-5.9818,-5.9838,-5.9855,0,0,0,0,0,0,-5.8786,-5.8873,-5.8866,-5.901,-5.9078,-5.9155,-5.9228,-5.9221,-5.93,-5.9292,-5.9314,-5.9333,-5.9464,-5.9502,-5.9435,-5.9662,-5.9602,-5.9619,-5.9632,-5.9651,-5.9666,-5.9654,-5.9389,0,0,0,0,0,-5.8811,-5.8901,-5.8972,-5.9093,-5.9127,-5.9172,-5.9225,-5.9235,-5.9305,-5.9333,-5.9383,-5.9451,-5.954,-5.9598,-5.9682,-5.9831,-5.9849,-5.9896,-5.9911,-5.9923,-5.9937,-6.002,-6.0042,-5.9806,-5.9806,-5.9806,0,0,-5.8864,-5.8923,-5.8978,-5.9102,-5.9156,-5.9249,-5.9196,-5.9296,-5.9365,-5.9348,-5.9474,-5.9513,-5.9591,-5.9731,-5.9795,-5.9766,-6.0007,-5.9936,-5.9946,-5.9953,-6.0033,-6.0055,-6.0075,-5.9813,-5.9812,-5.9811,0,0,-5.9008,-5.9061,-5.9169,-5.9224,-5.9306,-5.9336,-5.9361,-5.9441,-5.9467,-5.9594,-5.9583,-5.9665,-5.9817,-5.9873,-5.9922,-6.0089,-6.0077,-6.0116,-6.0195,-6.0275,-6.0294,-6.0311,-6.0372,-6.0393,-6.013,-6.013,-6.013,0,-5.9063,-5.9203,-5.9224,-5.9327,-5.9382,-5.9372,-5.9481,-5.9534,-5.9639,-5.9677,-5.9644,-5.9836,-5.9887,-6.0041,-6.0082,-6.0121,-6.0152,-6.0107,-6.029,-6.0307,-6.0323,-6.0381,-6.0404,-6.0134,-6.0134,-6.0134,-6.0133,0,-5.9268,-5.9365,-5.9442,-5.9546,-5.961,-5.9714,-5.9751,-5.9813,-5.9818,-5.9851,-5.9981,-6.0042,-6.014,-6.0177,-6.0182,-6.0333,-6.0313,-6.0285,-6.0226,-6.0349,-6.0404,-6.0427,-6.0141,-6.0139,-6.0138,-6.0137,0,0,-5.9439,-5.9555,-5.9583,-5.9631,-5.9722,-5.9798,-5.9902,-6.0,-6.0053,-6.0126,-6.0215,-6.0344,-6.032,-6.0375,-6.0386,-6.0457,-6.0587,-6.042,-6.0422,-6.045,-6.0758,-6.0779,-6.0805,-6.0579,-6.0584,-6.0587,-6.0752,0,-5.9593,-5.978,-5.9803,-5.9968,-6.0059,-6.0052,-6.0144,-6.0209,-6.0243,-6.0324,-6.036,-6.0453,-6.0413,-6.0446,-6.0516,-6.0557,-6.0649,-6.0545,-6.0662,-6.0666,-6.0644,-6.0833,-6.0856,-6.1008,-6.0773,-6.0777,-6.078,0,-5.9798,-5.9879,-6.0054,-6.0134,-6.0173,-6.0255,-6.0347,-6.0425,-6.05,-6.0519,-6.0582,-6.0585,-6.0693,-6.0629,-6.0779,-6.0707,-6.0757,-6.0784,-6.0791,-6.0803,-6.0731,-6.0852,-6.1057,-6.1081,-6.0814,-6.0811,-6.0809,0,-5.9907,-6.006,-6.0185,-6.0226,-6.0322,-6.038,-6.0423,-6.0494,-6.0551,-6.0631,-6.0669,-6.076,-6.081,-6.088,-6.0907,-6.0858,-6.1056,-6.0994,-6.1076,-6.1075,-6.1118,-6.1115,-6.1335,-6.1148,-6.1148,-6.1147,-6.1147,0,-6.0077,-6.0185,-6.0236,-6.0313,-6.0434,-6.0459,-6.0577,-6.0617,-6.0681,-6.0765,-6.0764,-6.0843,-6.0874,-6.0959,-6.0981,-6.1102,-6.1124,-6.1143,-6.1148,-6.1144,-6.1142,-6.1177,-6.1167,-6.1153,-6.1152,-6.1151,-6.115,0,-6.022,-6.0259,-6.0395,-6.0476,-6.0499,-6.0584,-6.0653,-6.0728,-6.076,-6.0868,-6.0894,-6.0946,-6.1045,-6.108,-6.1199,-6.1214,-6.1356,-6.1351,-6.1331,-6.1332,-6.1412,-6.1405,-6.1664,-6.1699,-6.1488,-6.1489,-6.1491,0,-6.0327,-6.041,-6.05,-6.0558,-6.0603,-6.0695,-6.0754,-6.0782,-6.0844,-6.0936,-6.1,-6.1099,-6.118,-6.1339,-6.1386,-6.1478,-6.1476,-6.1561,-6.149,-6.1484,-6.1479,-6.1474,-6.1483,-6.1574,-6.1576,-6.1578,-6.1579,0,-6.0512,-6.0528,-6.0614,-6.0708,-6.0779,-6.0854,-6.0926,-6.0973,-6.1011,-6.1081,-6.1183,-6.1246,-6.137,-6.1468,-6.1563,-6.1606,-6.16,-6.1601,-6.1625,-6.1623,-6.1609,-6.1619,-6.1368,-6.1595,-6.1594,-6.1593,-6.1592,-6.1591,-6.0641,-6.0716,-6.0791,-6.0888,-6.0946,-6.1014,-6.1089,-6.1132,-6.1218,-6.1322,-6.1333,-6.1443,-6.1517,-6.1643,-6.1691,-6.1778,-6.1754,-6.1788,-6.1797,-6.1806,-6.1813,-6.1594,-6.1795,-6.1794,-6.1794,-6.1794,-6.1793,0,-6.0828,-6.0877,-6.0965,-6.1068,-6.1144,-6.1132,-6.1212,-6.1277,-6.1375,-6.1444,-6.1524,-6.1643,-6.1739,-6.1795,-6.1891,-6.195,-6.1949,-6.1974,-6.197,-6.1981,-6.1827,-6.1798,-6.1973,-6.1973,-6.1973,-6.1973,-6.1973,-6.1973,-6.0934,-6.106,-6.1084,-6.1239,-6.1287,-6.1396,-6.1443,-6.1506,-6.1562,-6.1695,-6.1775,-6.1812,-6.1876,-6.1977,-6.2065,-6.2079,-6.2115,-6.2142,-6.2154,-6.201,-6.1991,-6.1974,-6.1946,-6.2149,-6.215,-6.23,-6.2302,-6.2303]}]]